MAKERSAT 0

Last updated on Wed Nov 05 2025 00:03:48 GMT+0000 (Coordinated Universal Time)

1 43016U 17073D 25308.60188530 .00024011 00000+0 84915-3 0 9998 2 43016 97.4925 185.6242 0132601 346.5101 13.2602 15.21121399432190
UTC large
Height (km)
Speed (km/s)
/
Latitude / Longitude
Inclination (degrees)
Orbital Period (minutes)
Azimuth
Elevation
Range (km)
Doppler Factor

Next 0 passes for location: London (51.5072 / 0.1276)

Sorry there are no passes over London.